owner,sensor,date,latitude,longitude,vertical_datum,sea_water_temperature,qcFlag 
WAVCIS,ioos:station:WAVCIS:CSI16:2,2011-06-01T00:00:00Z,29.4012,-89.0355,10.0,26.407,11111222 
WAVCIS,ioos:station:WAVCIS:CSI16:2,2011-06-01T00:15:00Z,29.4012,-89.0355,10.0,26.224,11111222 
WAVCIS,ioos:station:WAVCIS:CSI16:2,2011-06-01T00:30:00Z,29.4012,-89.0355,10.0,26.593,11111222 
WAVCIS,ioos:station:WAVCIS:CSI16:2,2011-06-01T00:45:00Z,29.4012,-89.0355,10.0,26.616,11111222 
WAVCIS,ioos:station:WAVCIS:CSI16:2,2011-06-01T01:00:00Z,29.4012,-89.0355,10.0,26.342,11111222 
WAVCIS,ioos:station:WAVCIS:CSI16:2,2011-06-01T01:15:00Z,29.4012,-89.0355,10.0,26.474,11111222 
WAVCIS,ioos:station:WAVCIS:CSI16:2,2011-06-01T01:30:00Z,29.4012,-89.0355,10.0,26.573,11111222 
WAVCIS,ioos:station:WAVCIS:CSI16:2,2011-06-01T01:45:00Z,29.4012,-89.0355,10.0,26.215,11111222 
WAVCIS,ioos:station:WAVCIS:CSI16:2,2011-06-01T02:00:00Z,29.4012,-89.0355,10.0,26.307,11111222 
WAVCIS,ioos:station:WAVCIS:CSI16:2,2011-06-01T02:15:00Z,29.4012,-89.0355,10.0,26.352,11111222 
WAVCIS,ioos:station:WAVCIS:CSI16:2,2011-06-01T02:30:00Z,29.4012,-89.0355,10.0,26.304,11111222 
WAVCIS,ioos:station:WAVCIS:CSI16:2,2011-06-01T02:45:00Z,29.4012,-89.0355,10.0,26.007,11111222 
WAVCIS,ioos:station:WAVCIS:CSI16:2,2011-06-01T03:00:00Z,29.4012,-89.0355,10.0,26.238,11111222 
WAVCIS,ioos:station:WAVCIS:CSI16:2,2011-06-01T03:15:00Z,29.4012,-89.0355,10.0,26.026,11111222 
WAVCIS,ioos:station:WAVCIS:CSI16:2,2011-06-01T03:30:00Z,29.4012,-89.0355,10.0,25.895,11111222 
WAVCIS,ioos:station:WAVCIS:CSI16:2,2011-06-01T03:45:00Z,29.4012,-89.0355,10.0,25.933,11111222 
WAVCIS,ioos:station:WAVCIS:CSI16:2,2011-06-01T04:00:00Z,29.4012,-89.0355,10.0,25.636,11111222 
WAVCIS,ioos:station:WAVCIS:CSI16:2,2011-06-01T04:15:00Z,29.4012,-89.0355,10.0,25.616,11111222 
WAVCIS,ioos:station:WAVCIS:CSI16:2,2011-06-01T04:30:00Z,29.4012,-89.0355,10.0,25.612,11111222 
WAVCIS,ioos:station:WAVCIS:CSI16:2,2011-06-01T04:45:00Z,29.4012,-89.0355,10.0,25.476,11111222 
WAVCIS,ioos:station:WAVCIS:CSI16:2,2011-06-01T05:00:00Z,29.4012,-89.0355,10.0,25.22,11111222 
WAVCIS,ioos:station:WAVCIS:CSI16:2,2011-06-01T05:15:00Z,29.4012,-89.0355,10.0,25.168,11111222 
WAVCIS,ioos:station:WAVCIS:CSI16:2,2011-06-01T05:30:00Z,29.4012,-89.0355,10.0,24.758,11111222 
WAVCIS,ioos:station:WAVCIS:CSI16:2,2011-06-01T05:45:00Z,29.4012,-89.0355,10.0,24.854,11111222 
WAVCIS,ioos:station:WAVCIS:CSI16:2,2011-06-01T06:00:00Z,29.4012,-89.0355,10.0,24.839,11111222 
WAVCIS,ioos:station:WAVCIS:CSI16:2,2011-06-01T06:15:00Z,29.4012,-89.0355,10.0,24.818,11111222 
WAVCIS,ioos:station:WAVCIS:CSI16:2,2011-06-01T06:30:00Z,29.4012,-89.0355,10.0,24.772,11111222 
WAVCIS,ioos:station:WAVCIS:CSI16:2,2011-06-01T06:45:00Z,29.4012,-89.0355,10.0,24.813,11111222 
WAVCIS,ioos:station:WAVCIS:CSI16:2,2011-06-01T07:00:00Z,29.4012,-89.0355,10.0,24.818,11111222 
WAVCIS,ioos:station:WAVCIS:CSI16:2,2011-06-01T07:15:00Z,29.4012,-89.0355,10.0,24.463,11111222 
WAVCIS,ioos:station:WAVCIS:CSI16:2,2011-06-01T07:30:00Z,29.4012,-89.0355,10.0,24.176,11111222 
WAVCIS,ioos:station:WAVCIS:CSI16:2,2011-06-01T07:45:00Z,29.4012,-89.0355,10.0,24.03,11111222 
WAVCIS,ioos:station:WAVCIS:CSI16:2,2011-06-01T08:00:00Z,29.4012,-89.0355,10.0,23.892,11111222 
WAVCIS,ioos:station:WAVCIS:CSI16:2,2011-06-01T08:15:00Z,29.4012,-89.0355,10.0,24.015,11111222 
WAVCIS,ioos:station:WAVCIS:CSI16:2,2011-06-01T08:30:00Z,29.4012,-89.0355,10.0,24.153,11111222 
WAVCIS,ioos:station:WAVCIS:CSI16:2,2011-06-01T08:45:00Z,29.4012,-89.0355,10.0,24.013,11111222 
WAVCIS,ioos:station:WAVCIS:CSI16:2,2011-06-01T09:00:00Z,29.4012,-89.0355,10.0,23.948,11111222 
WAVCIS,ioos:station:WAVCIS:CSI16:2,2011-06-01T09:15:00Z,29.4012,-89.0355,10.0,23.956,11111222 
WAVCIS,ioos:station:WAVCIS:CSI16:2,2011-06-01T09:30:00Z,29.4012,-89.0355,10.0,23.923,11111222 
WAVCIS,ioos:station:WAVCIS:CSI16:2,2011-06-01T09:45:00Z,29.4012,-89.0355,10.0,23.856,11111222 
WAVCIS,ioos:station:WAVCIS:CSI16:2,2011-06-01T10:00:00Z,29.4012,-89.0355,10.0,24.035,11111222 
WAVCIS,ioos:station:WAVCIS:CSI16:2,2011-06-01T10:15:00Z,29.4012,-89.0355,10.0,24.029,11111222 
WAVCIS,ioos:station:WAVCIS:CSI16:2,2011-06-01T10:30:00Z,29.4012,-89.0355,10.0,24.294,11111222 
WAVCIS,ioos:station:WAVCIS:CSI16:2,2011-06-01T10:45:00Z,29.4012,-89.0355,10.0,24.391,11111222 
WAVCIS,ioos:station:WAVCIS:CSI16:2,2011-06-01T11:00:00Z,29.4012,-89.0355,10.0,24.203,11111222 
WAVCIS,ioos:station:WAVCIS:CSI16:2,2011-06-01T11:15:00Z,29.4012,-89.0355,10.0,24.152,11111222 
WAVCIS,ioos:station:WAVCIS:CSI16:2,2011-06-01T11:30:00Z,29.4012,-89.0355,10.0,24.228,11111222 
WAVCIS,ioos:station:WAVCIS:CSI16:2,2011-06-01T11:45:00Z,29.4012,-89.0355,10.0,24.207,11111222 
WAVCIS,ioos:station:WAVCIS:CSI16:2,2011-06-01T12:00:00Z,29.4012,-89.0355,10.0,24.18,11111222 
WAVCIS,ioos:station:WAVCIS:CSI16:2,2011-06-01T12:15:00Z,29.4012,-89.0355,10.0,24.076,11111222 
WAVCIS,ioos:station:WAVCIS:CSI16:2,2011-06-01T12:30:00Z,29.4012,-89.0355,10.0,24.038,11111222 
WAVCIS,ioos:station:WAVCIS:CSI16:2,2011-06-01T12:45:00Z,29.4012,-89.0355,10.0,23.981,11111222 
WAVCIS,ioos:station:WAVCIS:CSI16:2,2011-06-01T13:00:00Z,29.4012,-89.0355,10.0,23.923,11111222 
WAVCIS,ioos:station:WAVCIS:CSI16:2,2011-06-01T13:15:00Z,29.4012,-89.0355,10.0,23.814,11111222 
WAVCIS,ioos:station:WAVCIS:CSI16:2,2011-06-01T13:30:00Z,29.4012,-89.0355,10.0,23.853,11111222 
WAVCIS,ioos:station:WAVCIS:CSI16:2,2011-06-01T13:45:00Z,29.4012,-89.0355,10.0,23.809,11111222 
WAVCIS,ioos:station:WAVCIS:CSI16:2,2011-06-01T14:00:00Z,29.4012,-89.0355,10.0,23.809,11111222 
WAVCIS,ioos:station:WAVCIS:CSI16:2,2011-06-01T14:15:00Z,29.4012,-89.0355,10.0,23.779,11111222 
WAVCIS,ioos:station:WAVCIS:CSI16:2,2011-06-01T14:30:00Z,29.4012,-89.0355,10.0,23.749,11111222 
WAVCIS,ioos:station:WAVCIS:CSI16:2,2011-06-01T14:45:00Z,29.4012,-89.0355,10.0,23.737,11111222 
WAVCIS,ioos:station:WAVCIS:CSI16:2,2011-06-01T15:00:00Z,29.4012,-89.0355,10.0,23.725,11111222 
WAVCIS,ioos:station:WAVCIS:CSI16:2,2011-06-01T15:15:00Z,29.4012,-89.0355,10.0,23.715,11111222 
WAVCIS,ioos:station:WAVCIS:CSI16:2,2011-06-01T15:30:00Z,29.4012,-89.0355,10.0,23.692,11111222 
WAVCIS,ioos:station:WAVCIS:CSI16:2,2011-06-01T15:45:00Z,29.4012,-89.0355,10.0,23.683,11111222 
WAVCIS,ioos:station:WAVCIS:CSI16:2,2011-06-01T16:00:00Z,29.4012,-89.0355,10.0,23.708,11111222 
WAVCIS,ioos:station:WAVCIS:CSI16:2,2011-06-01T16:15:00Z,29.4012,-89.0355,10.0,23.679,11111222 
WAVCIS,ioos:station:WAVCIS:CSI16:2,2011-06-01T16:30:00Z,29.4012,-89.0355,10.0,23.669,11111222 
WAVCIS,ioos:station:WAVCIS:CSI16:2,2011-06-01T16:45:00Z,29.4012,-89.0355,10.0,23.666,11111222 
WAVCIS,ioos:station:WAVCIS:CSI16:2,2011-06-01T17:00:00Z,29.4012,-89.0355,10.0,23.673,11111222 
WAVCIS,ioos:station:WAVCIS:CSI16:2,2011-06-01T17:15:00Z,29.4012,-89.0355,10.0,23.648,11111222 
WAVCIS,ioos:station:WAVCIS:CSI16:2,2011-06-01T17:30:00Z,29.4012,-89.0355,10.0,23.705,11111222 
WAVCIS,ioos:station:WAVCIS:CSI16:2,2011-06-01T17:45:00Z,29.4012,-89.0355,10.0,23.672,11111222 
WAVCIS,ioos:station:WAVCIS:CSI16:2,2011-06-01T18:00:00Z,29.4012,-89.0355,10.0,23.704,11111222 
WAVCIS,ioos:station:WAVCIS:CSI16:2,2011-06-01T18:15:00Z,29.4012,-89.0355,10.0,23.794,11111222 
WAVCIS,ioos:station:WAVCIS:CSI16:2,2011-06-01T18:30:00Z,29.4012,-89.0355,10.0,23.802,11111222 
WAVCIS,ioos:station:WAVCIS:CSI16:2,2011-06-01T18:45:00Z,29.4012,-89.0355,10.0,23.876,11111222 
WAVCIS,ioos:station:WAVCIS:CSI16:2,2011-06-01T19:00:00Z,29.4012,-89.0355,10.0,23.997,11111222 
WAVCIS,ioos:station:WAVCIS:CSI16:2,2011-06-01T19:15:00Z,29.4012,-89.0355,10.0,24.035,11111222 
WAVCIS,ioos:station:WAVCIS:CSI16:2,2011-06-01T19:30:00Z,29.4012,-89.0355,10.0,24.019,11111222 
WAVCIS,ioos:station:WAVCIS:CSI16:2,2011-06-01T19:45:00Z,29.4012,-89.0355,10.0,24.059,11111222 
WAVCIS,ioos:station:WAVCIS:CSI16:2,2011-06-01T20:00:00Z,29.4012,-89.0355,10.0,24.132,11111222 
WAVCIS,ioos:station:WAVCIS:CSI16:2,2011-06-01T20:15:00Z,29.4012,-89.0355,10.0,24.173,11111222 
WAVCIS,ioos:station:WAVCIS:CSI16:2,2011-06-01T20:30:00Z,29.4012,-89.0355,10.0,24.13,11111222 
WAVCIS,ioos:station:WAVCIS:CSI16:2,2011-06-01T20:45:00Z,29.4012,-89.0355,10.0,24.171,11111222 
WAVCIS,ioos:station:WAVCIS:CSI16:2,2011-06-01T21:00:00Z,29.4012,-89.0355,10.0,24.699,11111222 
WAVCIS,ioos:station:WAVCIS:CSI16:2,2011-06-01T21:15:00Z,29.4012,-89.0355,10.0,25.384,11111222 
WAVCIS,ioos:station:WAVCIS:CSI16:2,2011-06-01T21:30:00Z,29.4012,-89.0355,10.0,25.864,11111222 
WAVCIS,ioos:station:WAVCIS:CSI16:2,2011-06-01T21:45:00Z,29.4012,-89.0355,10.0,26.153,11111222 
WAVCIS,ioos:station:WAVCIS:CSI16:2,2011-06-01T22:00:00Z,29.4012,-89.0355,10.0,26.037,11111222 
WAVCIS,ioos:station:WAVCIS:CSI16:2,2011-06-01T22:15:00Z,29.4012,-89.0355,10.0,25.895,11111222 
WAVCIS,ioos:station:WAVCIS:CSI16:2,2011-06-01T22:30:00Z,29.4012,-89.0355,10.0,25.445,11111222 
WAVCIS,ioos:station:WAVCIS:CSI16:2,2011-06-01T22:45:00Z,29.4012,-89.0355,10.0,25.969,11111222 
WAVCIS,ioos:station:WAVCIS:CSI16:2,2011-06-01T23:00:00Z,29.4012,-89.0355,10.0,26.178,11111222 
WAVCIS,ioos:station:WAVCIS:CSI16:2,2011-06-01T23:15:00Z,29.4012,-89.0355,10.0,26.287,11111222 
WAVCIS,ioos:station:WAVCIS:CSI16:2,2011-06-01T23:30:00Z,29.4012,-89.0355,10.0,26.496,11111222 
WAVCIS,ioos:station:WAVCIS:CSI16:2,2011-06-01T23:45:00Z,29.4012,-89.0355,10.0,26.607,11111222 
WAVCIS,ioos:station:WAVCIS:CSI16:2,2011-06-02T00:00:00Z,29.4012,-89.0355,10.0,26.691,11111222 
WAVCIS,ioos:station:WAVCIS:CSI16:2,2011-06-02T00:15:00Z,29.4012,-89.0355,10.0,26.716,11111222 
WAVCIS,ioos:station:WAVCIS:CSI16:2,2011-06-02T00:30:00Z,29.4012,-89.0355,10.0,26.551,11111222 
WAVCIS,ioos:station:WAVCIS:CSI16:2,2011-06-02T00:45:00Z,29.4012,-89.0355,10.0,26.521,11111222 
WAVCIS,ioos:station:WAVCIS:CSI16:2,2011-06-02T01:00:00Z,29.4012,-89.0355,10.0,26.654,11111222 
WAVCIS,ioos:station:WAVCIS:CSI16:2,2011-06-02T01:15:00Z,29.4012,-89.0355,10.0,26.758,11111222 
WAVCIS,ioos:station:WAVCIS:CSI16:2,2011-06-02T01:30:00Z,29.4012,-89.0355,10.0,26.842,11111222 
WAVCIS,ioos:station:WAVCIS:CSI16:2,2011-06-02T01:45:00Z,29.4012,-89.0355,10.0,26.675,11111222 
WAVCIS,ioos:station:WAVCIS:CSI16:2,2011-06-02T02:00:00Z,29.4012,-89.0355,10.0,26.515,11111222 
WAVCIS,ioos:station:WAVCIS:CSI16:2,2011-06-02T02:15:00Z,29.4012,-89.0355,10.0,26.395,11111222 
WAVCIS,ioos:station:WAVCIS:CSI16:2,2011-06-02T02:30:00Z,29.4012,-89.0355,10.0,26.346,11111222 
WAVCIS,ioos:station:WAVCIS:CSI16:2,2011-06-02T02:45:00Z,29.4012,-89.0355,10.0,26.399,11111222 
WAVCIS,ioos:station:WAVCIS:CSI16:2,2011-06-02T03:00:00Z,29.4012,-89.0355,10.0,26.535,11111222 
WAVCIS,ioos:station:WAVCIS:CSI16:2,2011-06-02T03:15:00Z,29.4012,-89.0355,10.0,26.732,11111222 
WAVCIS,ioos:station:WAVCIS:CSI16:2,2011-06-02T03:30:00Z,29.4012,-89.0355,10.0,26.47,11111222 
WAVCIS,ioos:station:WAVCIS:CSI16:2,2011-06-02T03:45:00Z,29.4012,-89.0355,10.0,26.3,11111222 
WAVCIS,ioos:station:WAVCIS:CSI16:2,2011-06-02T04:00:00Z,29.4012,-89.0355,10.0,26.343,11111222 
WAVCIS,ioos:station:WAVCIS:CSI16:2,2011-06-02T04:15:00Z,29.4012,-89.0355,10.0,26.351,11111222 
WAVCIS,ioos:station:WAVCIS:CSI16:2,2011-06-02T04:30:00Z,29.4012,-89.0355,10.0,26.104,11111222 
WAVCIS,ioos:station:WAVCIS:CSI16:2,2011-06-02T04:45:00Z,29.4012,-89.0355,10.0,26.195,11111222 
WAVCIS,ioos:station:WAVCIS:CSI16:2,2011-06-02T05:00:00Z,29.4012,-89.0355,10.0,26.068,11111222 
WAVCIS,ioos:station:WAVCIS:CSI16:2,2011-06-02T05:15:00Z,29.4012,-89.0355,10.0,26.166,11111222 
WAVCIS,ioos:station:WAVCIS:CSI16:2,2011-06-02T05:30:00Z,29.4012,-89.0355,10.0,26.008,11111222 
WAVCIS,ioos:station:WAVCIS:CSI16:2,2011-06-02T05:45:00Z,29.4012,-89.0355,10.0,26.051,11111222 
WAVCIS,ioos:station:WAVCIS:CSI16:2,2011-06-02T06:00:00Z,29.4012,-89.0355,10.0,25.728,11111222 
WAVCIS,ioos:station:WAVCIS:CSI16:2,2011-06-02T06:15:00Z,29.4012,-89.0355,10.0,25.673,11111222 
WAVCIS,ioos:station:WAVCIS:CSI16:2,2011-06-02T06:30:00Z,29.4012,-89.0355,10.0,25.596,11111222 
WAVCIS,ioos:station:WAVCIS:CSI16:2,2011-06-02T06:45:00Z,29.4012,-89.0355,10.0,25.53,11111222 
WAVCIS,ioos:station:WAVCIS:CSI16:2,2011-06-02T07:00:00Z,29.4012,-89.0355,10.0,24.412,11111222 
WAVCIS,ioos:station:WAVCIS:CSI16:2,2011-06-02T07:15:00Z,29.4012,-89.0355,10.0,24.586,11111222 
WAVCIS,ioos:station:WAVCIS:CSI16:2,2011-06-02T07:30:00Z,29.4012,-89.0355,10.0,24.63,11111222 
WAVCIS,ioos:station:WAVCIS:CSI16:2,2011-06-02T07:45:00Z,29.4012,-89.0355,10.0,24.981,11111222 
WAVCIS,ioos:station:WAVCIS:CSI16:2,2011-06-02T08:00:00Z,29.4012,-89.0355,10.0,24.887,11111222 
WAVCIS,ioos:station:WAVCIS:CSI16:2,2011-06-02T08:15:00Z,29.4012,-89.0355,10.0,24.726,11111222 
WAVCIS,ioos:station:WAVCIS:CSI16:2,2011-06-02T08:30:00Z,29.4012,-89.0355,10.0,24.704,11111222 
WAVCIS,ioos:station:WAVCIS:CSI16:2,2011-06-02T08:45:00Z,29.4012,-89.0355,10.0,24.313,11111222 
WAVCIS,ioos:station:WAVCIS:CSI16:2,2011-06-02T09:00:00Z,29.4012,-89.0355,10.0,24.445,11111222 
WAVCIS,ioos:station:WAVCIS:CSI16:2,2011-06-02T09:15:00Z,29.4012,-89.0355,10.0,24.223,11111222 
WAVCIS,ioos:station:WAVCIS:CSI16:2,2011-06-02T09:30:00Z,29.4012,-89.0355,10.0,24.303,11111222 
WAVCIS,ioos:station:WAVCIS:CSI16:2,2011-06-02T09:45:00Z,29.4012,-89.0355,10.0,24.22,11111222 
WAVCIS,ioos:station:WAVCIS:CSI16:2,2011-06-02T10:00:00Z,29.4012,-89.0355,10.0,24.527,11111222 
WAVCIS,ioos:station:WAVCIS:CSI16:2,2011-06-02T10:15:00Z,29.4012,-89.0355,10.0,24.007,11111222 
WAVCIS,ioos:station:WAVCIS:CSI16:2,2011-06-02T10:30:00Z,29.4012,-89.0355,10.0,23.783,11111222 
WAVCIS,ioos:station:WAVCIS:CSI16:2,2011-06-02T10:45:00Z,29.4012,-89.0355,10.0,23.611,11111222 
WAVCIS,ioos:station:WAVCIS:CSI16:2,2011-06-02T11:00:00Z,29.4012,-89.0355,10.0,23.528,11111222 
WAVCIS,ioos:station:WAVCIS:CSI16:2,2011-06-02T11:15:00Z,29.4012,-89.0355,10.0,23.505,11111222 
WAVCIS,ioos:station:WAVCIS:CSI16:2,2011-06-02T11:30:00Z,29.4012,-89.0355,10.0,23.538,11111222 
WAVCIS,ioos:station:WAVCIS:CSI16:2,2011-06-02T11:45:00Z,29.4012,-89.0355,10.0,23.503,11111222 
WAVCIS,ioos:station:WAVCIS:CSI16:2,2011-06-02T12:00:00Z,29.4012,-89.0355,10.0,23.51,11111222 
WAVCIS,ioos:station:WAVCIS:CSI16:2,2011-06-02T12:15:00Z,29.4012,-89.0355,10.0,23.534,11111222 
WAVCIS,ioos:station:WAVCIS:CSI16:2,2011-06-02T12:30:00Z,29.4012,-89.0355,10.0,23.547,11111222 
WAVCIS,ioos:station:WAVCIS:CSI16:2,2011-06-02T12:45:00Z,29.4012,-89.0355,10.0,23.583,11111222 
WAVCIS,ioos:station:WAVCIS:CSI16:2,2011-06-02T13:00:00Z,29.4012,-89.0355,10.0,23.595,11111222 
WAVCIS,ioos:station:WAVCIS:CSI16:2,2011-06-02T13:15:00Z,29.4012,-89.0355,10.0,23.705,11111222 
WAVCIS,ioos:station:WAVCIS:CSI16:2,2011-06-02T13:30:00Z,29.4012,-89.0355,10.0,23.712,11111222 
WAVCIS,ioos:station:WAVCIS:CSI16:2,2011-06-02T13:45:00Z,29.4012,-89.0355,10.0,23.75,11111222 
WAVCIS,ioos:station:WAVCIS:CSI16:2,2011-06-02T14:00:00Z,29.4012,-89.0355,10.0,23.645,11111222 
WAVCIS,ioos:station:WAVCIS:CSI16:2,2011-06-02T14:15:00Z,29.4012,-89.0355,10.0,23.62,11111222 
WAVCIS,ioos:station:WAVCIS:CSI16:2,2011-06-02T14:30:00Z,29.4012,-89.0355,10.0,23.645,11111222 
WAVCIS,ioos:station:WAVCIS:CSI16:2,2011-06-02T14:45:00Z,29.4012,-89.0355,10.0,23.677,11111222 
WAVCIS,ioos:station:WAVCIS:CSI16:2,2011-06-02T15:00:00Z,29.4012,-89.0355,10.0,23.706,11111222 
WAVCIS,ioos:station:WAVCIS:CSI16:2,2011-06-02T15:15:00Z,29.4012,-89.0355,10.0,23.747,11111222 
WAVCIS,ioos:station:WAVCIS:CSI16:2,2011-06-02T15:30:00Z,29.4012,-89.0355,10.0,23.796,11111222 
WAVCIS,ioos:station:WAVCIS:CSI16:2,2011-06-02T15:45:00Z,29.4012,-89.0355,10.0,23.724,11111222 
WAVCIS,ioos:station:WAVCIS:CSI16:2,2011-06-02T16:00:00Z,29.4012,-89.0355,10.0,23.992,11111222 
WAVCIS,ioos:station:WAVCIS:CSI16:2,2011-06-02T16:15:00Z,29.4012,-89.0355,10.0,23.948,11111222 
WAVCIS,ioos:station:WAVCIS:CSI16:2,2011-06-02T16:30:00Z,29.4012,-89.0355,10.0,23.944,11111222 
WAVCIS,ioos:station:WAVCIS:CSI16:2,2011-06-02T16:45:00Z,29.4012,-89.0355,10.0,24.094,11111222 
WAVCIS,ioos:station:WAVCIS:CSI16:2,2011-06-02T17:00:00Z,29.4012,-89.0355,10.0,24.338,11111222 
WAVCIS,ioos:station:WAVCIS:CSI16:2,2011-06-02T17:15:00Z,29.4012,-89.0355,10.0,24.536,11111222 
WAVCIS,ioos:station:WAVCIS:CSI16:2,2011-06-02T17:30:00Z,29.4012,-89.0355,10.0,24.57,11111222 
WAVCIS,ioos:station:WAVCIS:CSI16:2,2011-06-02T17:45:00Z,29.4012,-89.0355,10.0,24.779,11111222 
WAVCIS,ioos:station:WAVCIS:CSI16:2,2011-06-02T18:00:00Z,29.4012,-89.0355,10.0,24.884,11111222 
WAVCIS,ioos:station:WAVCIS:CSI16:2,2011-06-02T18:15:00Z,29.4012,-89.0355,10.0,24.962,11111222 
WAVCIS,ioos:station:WAVCIS:CSI16:2,2011-06-02T18:30:00Z,29.4012,-89.0355,10.0,24.857,11111222 
WAVCIS,ioos:station:WAVCIS:CSI16:2,2011-06-02T18:45:00Z,29.4012,-89.0355,10.0,25.09,11111222 
WAVCIS,ioos:station:WAVCIS:CSI16:2,2011-06-02T19:00:00Z,29.4012,-89.0355,10.0,25.196,11111222 
WAVCIS,ioos:station:WAVCIS:CSI16:2,2011-06-02T19:15:00Z,29.4012,-89.0355,10.0,25.121,11111222 
WAVCIS,ioos:station:WAVCIS:CSI16:2,2011-06-02T19:30:00Z,29.4012,-89.0355,10.0,24.955,11111222 
WAVCIS,ioos:station:WAVCIS:CSI16:2,2011-06-02T19:45:00Z,29.4012,-89.0355,10.0,25.27,11111222 
WAVCIS,ioos:station:WAVCIS:CSI16:2,2011-06-02T20:00:00Z,29.4012,-89.0355,10.0,25.692,11111222 
WAVCIS,ioos:station:WAVCIS:CSI16:2,2011-06-02T20:15:00Z,29.4012,-89.0355,10.0,25.765,11111222 
WAVCIS,ioos:station:WAVCIS:CSI16:2,2011-06-02T20:30:00Z,29.4012,-89.0355,10.0,25.792,11111222 
WAVCIS,ioos:station:WAVCIS:CSI16:2,2011-06-02T20:45:00Z,29.4012,-89.0355,10.0,25.923,11111222 
WAVCIS,ioos:station:WAVCIS:CSI16:2,2011-06-02T21:00:00Z,29.4012,-89.0355,10.0,26.803,11111222 
WAVCIS,ioos:station:WAVCIS:CSI16:2,2011-06-02T21:15:00Z,29.4012,-89.0355,10.0,27.12,11111222 
WAVCIS,ioos:station:WAVCIS:CSI16:2,2011-06-02T21:30:00Z,29.4012,-89.0355,10.0,26.197,11111222 
WAVCIS,ioos:station:WAVCIS:CSI16:2,2011-06-02T21:45:00Z,29.4012,-89.0355,10.0,26.908,11111222 
WAVCIS,ioos:station:WAVCIS:CSI16:2,2011-06-02T22:00:00Z,29.4012,-89.0355,10.0,27.396,11111222 
WAVCIS,ioos:station:WAVCIS:CSI16:2,2011-06-02T22:15:00Z,29.4012,-89.0355,10.0,26.682,11111222 
WAVCIS,ioos:station:WAVCIS:CSI16:2,2011-06-02T22:30:00Z,29.4012,-89.0355,10.0,26.502,11111222 
WAVCIS,ioos:station:WAVCIS:CSI16:2,2011-06-02T22:45:00Z,29.4012,-89.0355,10.0,26.808,11111222 
WAVCIS,ioos:station:WAVCIS:CSI16:2,2011-06-02T23:00:00Z,29.4012,-89.0355,10.0,26.631,11111222 
WAVCIS,ioos:station:WAVCIS:CSI16:2,2011-06-02T23:15:00Z,29.4012,-89.0355,10.0,27.325,11111222 
WAVCIS,ioos:station:WAVCIS:CSI16:2,2011-06-02T23:30:00Z,29.4012,-89.0355,10.0,28.243,11111222 
WAVCIS,ioos:station:WAVCIS:CSI16:2,2011-06-02T23:45:00Z,29.4012,-89.0355,10.0,28.742,11111222 
WAVCIS,ioos:station:WAVCIS:CSI16:2,2011-06-03T00:00:00Z,29.4012,-89.0355,10.0,27.737,11111222 
WAVCIS,ioos:station:WAVCIS:CSI16:2,2011-06-03T00:15:00Z,29.4012,-89.0355,10.0,27.593,11111222 
WAVCIS,ioos:station:WAVCIS:CSI16:2,2011-06-03T00:30:00Z,29.4012,-89.0355,10.0,27.989,11111222 
WAVCIS,ioos:station:WAVCIS:CSI16:2,2011-06-03T00:45:00Z,29.4012,-89.0355,10.0,28.221,11111222 
WAVCIS,ioos:station:WAVCIS:CSI16:2,2011-06-03T01:00:00Z,29.4012,-89.0355,10.0,28.345,11111222 
WAVCIS,ioos:station:WAVCIS:CSI16:2,2011-06-03T01:15:00Z,29.4012,-89.0355,10.0,28.592,11111222 
WAVCIS,ioos:station:WAVCIS:CSI16:2,2011-06-03T01:30:00Z,29.4012,-89.0355,10.0,28.619,11111222 
WAVCIS,ioos:station:WAVCIS:CSI16:2,2011-06-03T01:45:00Z,29.4012,-89.0355,10.0,28.359,11111222 
WAVCIS,ioos:station:WAVCIS:CSI16:2,2011-06-03T02:00:00Z,29.4012,-89.0355,10.0,28.78,11111222 
WAVCIS,ioos:station:WAVCIS:CSI16:2,2011-06-03T02:15:00Z,29.4012,-89.0355,10.0,28.869,11111222 
WAVCIS,ioos:station:WAVCIS:CSI16:2,2011-06-03T02:30:00Z,29.4012,-89.0355,10.0,28.684,11111222 
WAVCIS,ioos:station:WAVCIS:CSI16:2,2011-06-03T02:45:00Z,29.4012,-89.0355,10.0,28.475,11111222 
WAVCIS,ioos:station:WAVCIS:CSI16:2,2011-06-03T03:00:00Z,29.4012,-89.0355,10.0,27.893,11111222 
WAVCIS,ioos:station:WAVCIS:CSI16:2,2011-06-03T03:15:00Z,29.4012,-89.0355,10.0,27.883,11111222 
WAVCIS,ioos:station:WAVCIS:CSI16:2,2011-06-03T03:30:00Z,29.4012,-89.0355,10.0,27.785,11111222 
WAVCIS,ioos:station:WAVCIS:CSI16:2,2011-06-03T03:45:00Z,29.4012,-89.0355,10.0,27.888,11111222 
WAVCIS,ioos:station:WAVCIS:CSI16:2,2011-06-03T04:00:00Z,29.4012,-89.0355,10.0,27.161,11111222 
WAVCIS,ioos:station:WAVCIS:CSI16:2,2011-06-03T04:15:00Z,29.4012,-89.0355,10.0,27.02,11111222 
WAVCIS,ioos:station:WAVCIS:CSI16:2,2011-06-03T04:30:00Z,29.4012,-89.0355,10.0,26.713,11111222 
WAVCIS,ioos:station:WAVCIS:CSI16:2,2011-06-03T04:45:00Z,29.4012,-89.0355,10.0,26.543,11111222 
WAVCIS,ioos:station:WAVCIS:CSI16:2,2011-06-03T05:00:00Z,29.4012,-89.0355,10.0,26.632,11111222 
WAVCIS,ioos:station:WAVCIS:CSI16:2,2011-06-03T05:15:00Z,29.4012,-89.0355,10.0,26.883,11111222 
WAVCIS,ioos:station:WAVCIS:CSI16:2,2011-06-03T05:30:00Z,29.4012,-89.0355,10.0,26.948,11111222 
WAVCIS,ioos:station:WAVCIS:CSI16:2,2011-06-03T05:45:00Z,29.4012,-89.0355,10.0,26.56,11111222 
WAVCIS,ioos:station:WAVCIS:CSI16:2,2011-06-03T06:00:00Z,29.4012,-89.0355,10.0,26.588,11111222 
WAVCIS,ioos:station:WAVCIS:CSI16:2,2011-06-03T06:15:00Z,29.4012,-89.0355,10.0,26.583,11111222 
WAVCIS,ioos:station:WAVCIS:CSI16:2,2011-06-03T06:30:00Z,29.4012,-89.0355,10.0,26.588,11111222 
WAVCIS,ioos:station:WAVCIS:CSI16:2,2011-06-03T06:45:00Z,29.4012,-89.0355,10.0,26.434,11111222 
WAVCIS,ioos:station:WAVCIS:CSI16:2,2011-06-03T07:00:00Z,29.4012,-89.0355,10.0,26.398,11111222 
WAVCIS,ioos:station:WAVCIS:CSI16:2,2011-06-03T07:15:00Z,29.4012,-89.0355,10.0,26.752,11111222 
WAVCIS,ioos:station:WAVCIS:CSI16:2,2011-06-03T07:30:00Z,29.4012,-89.0355,10.0,25.957,11111222 
WAVCIS,ioos:station:WAVCIS:CSI16:2,2011-06-03T07:45:00Z,29.4012,-89.0355,10.0,26.484,11111222 
WAVCIS,ioos:station:WAVCIS:CSI16:2,2011-06-03T08:00:00Z,29.4012,-89.0355,10.0,26.236,11111222 
WAVCIS,ioos:station:WAVCIS:CSI16:2,2011-06-03T08:15:00Z,29.4012,-89.0355,10.0,25.726,11111222 
WAVCIS,ioos:station:WAVCIS:CSI16:2,2011-06-03T08:30:00Z,29.4012,-89.0355,10.0,25.277,11111222 
WAVCIS,ioos:station:WAVCIS:CSI16:2,2011-06-03T08:45:00Z,29.4012,-89.0355,10.0,25.01,11111222 
WAVCIS,ioos:station:WAVCIS:CSI16:2,2011-06-03T09:00:00Z,29.4012,-89.0355,10.0,24.735,11111222 
WAVCIS,ioos:station:WAVCIS:CSI16:2,2011-06-03T09:15:00Z,29.4012,-89.0355,10.0,24.614,11111222 
WAVCIS,ioos:station:WAVCIS:CSI16:2,2011-06-03T09:30:00Z,29.4012,-89.0355,10.0,24.323,11111222 
WAVCIS,ioos:station:WAVCIS:CSI16:2,2011-06-03T09:45:00Z,29.4012,-89.0355,10.0,24.18,11111222 
WAVCIS,ioos:station:WAVCIS:CSI16:2,2011-06-03T10:00:00Z,29.4012,-89.0355,10.0,24.682,11111222 
WAVCIS,ioos:station:WAVCIS:CSI16:2,2011-06-03T10:15:00Z,29.4012,-89.0355,10.0,24.583,11111222 
WAVCIS,ioos:station:WAVCIS:CSI16:2,2011-06-03T10:30:00Z,29.4012,-89.0355,10.0,24.534,11111222 
WAVCIS,ioos:station:WAVCIS:CSI16:2,2011-06-03T10:45:00Z,29.4012,-89.0355,10.0,24.387,11111222 
WAVCIS,ioos:station:WAVCIS:CSI16:2,2011-06-03T11:00:00Z,29.4012,-89.0355,10.0,24.229,11111222 
WAVCIS,ioos:station:WAVCIS:CSI16:2,2011-06-03T11:15:00Z,29.4012,-89.0355,10.0,24.166,11111222 
WAVCIS,ioos:station:WAVCIS:CSI16:2,2011-06-03T11:30:00Z,29.4012,-89.0355,10.0,24.089,11111222 
WAVCIS,ioos:station:WAVCIS:CSI16:2,2011-06-03T11:45:00Z,29.4012,-89.0355,10.0,23.963,11111222 
WAVCIS,ioos:station:WAVCIS:CSI16:2,2011-06-03T12:00:00Z,29.4012,-89.0355,10.0,23.874,11111222 
WAVCIS,ioos:station:WAVCIS:CSI16:2,2011-06-03T12:15:00Z,29.4012,-89.0355,10.0,23.699,11111222 
WAVCIS,ioos:station:WAVCIS:CSI16:2,2011-06-03T12:30:00Z,29.4012,-89.0355,10.0,23.631,11111222 
WAVCIS,ioos:station:WAVCIS:CSI16:2,2011-06-03T12:45:00Z,29.4012,-89.0355,10.0,23.561,11111222 
WAVCIS,ioos:station:WAVCIS:CSI16:2,2011-06-03T13:00:00Z,29.4012,-89.0355,10.0,23.563,11111222 
WAVCIS,ioos:station:WAVCIS:CSI16:2,2011-06-03T13:15:00Z,29.4012,-89.0355,10.0,23.536,11111222 
WAVCIS,ioos:station:WAVCIS:CSI16:2,2011-06-03T13:30:00Z,29.4012,-89.0355,10.0,23.438,11111222 
WAVCIS,ioos:station:WAVCIS:CSI16:2,2011-06-03T13:45:00Z,29.4012,-89.0355,10.0,23.427,11111222 
WAVCIS,ioos:station:WAVCIS:CSI16:2,2011-06-03T14:00:00Z,29.4012,-89.0355,10.0,23.419,11111222 
WAVCIS,ioos:station:WAVCIS:CSI16:2,2011-06-03T14:15:00Z,29.4012,-89.0355,10.0,23.419,11111222 
WAVCIS,ioos:station:WAVCIS:CSI16:2,2011-06-03T14:30:00Z,29.4012,-89.0355,10.0,23.409,11111222 
WAVCIS,ioos:station:WAVCIS:CSI16:2,2011-06-03T14:45:00Z,29.4012,-89.0355,10.0,23.384,11111222 